Tracking 29892 objects as of 21-Nov-2024
HD Live streaming from Space Station
objects crossing your sky now

DELTA 1 DEB

Track DELTA 1 DEB now!
10-day predictions


NORAD ID: 7163
Int'l Code: 1973-086EB
Perigee: 1,499.9 km
Apogee: 1,601.7 km
Inclination: 102.5 °
Period: 116.9 minutes
Semi major axis: 7921 km
RCS: 0.1088 m2 (medium)
Launch date: November 6, 1973
Source: United States (US)
Launch site: AIR FORCE WESTERN TEST RANGE (AFWTR)

Note: This is SATELLITE DEBRIS
Your satellite tracking list
Your tracking list is empty




NASA's NSSDC Master Catalog

Two Line Element Set (TLE):
1 07163U 73086EB  24325.50309690 -.00000015  00000-0  25995-3 0  9999
2 07163 102.4935 336.1592 0064245  81.1106  73.8972 12.31310067293318
Source of the keplerian elements: AFSPC